sat.trackr.live / text

‹ back to catalog

STARLINK-4006

NORAD 52676 · 2022-053W

PAYLOAD ACTIVE UNKNOWN

§ Identity

Operator
Country
US
Launch date
2022-05-18
Launch site
AFETR
Launch vehicle
Mass (kg)
RCS (m²)

Purposes: comms

External: N2YO · Heavens-Above · Gunter

§ Orbital elements

Epoch: 2026-09-19T18:45:32.991840Z

Period
93.79 min
Inclination
53.1612°
Eccentricity
0.0001074
Mean motion
15.35402062 rev/d
Perigee alt
459.0 km
Apogee alt
460.5 km
Semi-major
6,837.9 km
B*
2.1653e-5
RAAN
351.5529°
Arg perigee
84.7605°
Mean anomaly
275.3521°
Rev number
24,049

§ Raw data

STARLINK-40061 52676U 22053W   26262.78163185  .00000375  00000+0  21653-4 0  99902 52676  53.1612 351.5529 0001074  84.7605 275.3521 15.35402062240490

JSON: /api/v1/satellites/52676 · /tle

For live sub-satellite position, see the globe view (requires WebGL).

§ Visibility from observer

Set your observer location to see the next 7 days of passes ≥ 10°. The values pass through the URL so the page stays shareable.

No JS? Fill the form by hand. The geolocation button needs JavaScript.